Location: Banksville Park
(38.5557°N, 75.1182°W)
Time: 21:38:03
(UTC+00:00)

SJ 16-02 - Pass Details

Date: 19 September 2020
Orbit: 606 x 616 km, 75.0° (Epoch: 21 October)

Event Time Altitude Azimuth Distance (km) Brightness Sun altitude
Rises 08:54:01 0° 348° (NNW) 2,875 4.9 -22.2°
Reaches altitude 10° 08:56:20 10° 355° (N) 1,968 4.1 -21.8°
Maximum altitude 09:00:35 48° 70° (ENE) 802 2.3 -21.0°
Drops below altitude 10° 09:04:49 10° 145° (SE) 1,960 4.1 -20.2°
Sets 09:07:06 0° 151° (SSE) 2,862 4.9 -19.8°
